Regional Weather Roundup
Issued by NWS

Home | Current Version | Previous Version | Graphics & Text | Print | Product List | Glossary On
Versions: 1 2 3 4 5 6 7 8 9 10 11 12 13 14 15 16 17 18 19 20 21 22 23 24 25 26 27 28 29 30 31 32 33 34 35 36 37 38 39 40 41 42 43 44 45 46 47 48 49 50
000
ASUS43 KDMX 180101
RWRIA

WEATHER ROUNDUP FOR IOWA
NATIONAL WEATHER SERVICE DES MOINES IA
700 PM CST FRI NOV 17 2017

NOTE: "FAIR" INDICATES FEW OR NO CLOUDS BELOW 12,000 FEET WITH NO
SIGNIFICANT WEATHER AND/OR OBSTRUCTIONS TO VISIBILITY.

* - THESE STATIONS ARE NOT NWS STATIONS...THUS NOT UNDER NWS
QUALITY CONTROL.  THEY ALSO DO NOT REPORT WEATHER SUCH
AS PRECIPITATION OR FOG.

IAZ001>003-012>014-020>022-031>034-043>046-180200-
   NORTHWEST IOWA

CITY           SKY/WX    TMP DP  RH WIND       PRES   REMARKS
CARROLL *      FOG       48  48 100 CALM      29.57R VSB<1/4
CHEROKEE *     CLOUDY    46  40  81 N12G18    29.60S
DENISON *      FOG       48  48 100 N5        29.59R VSB 1/2
LE MARS *      CLOUDY    46  37  71 NE12      29.58F
ORANGE CITY *  MOCLDY    43  39  87 NE8       29.59F
SHELDON *      CLOUDY    41  37  87 NE14      29.57F
SIOUX CITY     CLOUDY    49  41  74 N12       29.58F
SPENCER        LGT RAIN  43  38  82 N15       29.61S
STORM LAKE *   CLOUDY    46  45  93 N14       29.59R
$$

IAZ055>058-069>071-079>083-090>094-180200-
   SOUTHWEST IOWA

CITY           SKY/WX    TMP DP  RH WIND       PRES   REMARKS
ATLANTIC *     FOG       52  52 100 CALM      29.55R VSB<1/4
AUDUBON *      FOG       50  48  93 CALM      29.57R VSB 1/2
CLARINDA *       N/A     55  55 100 N8          N/A  FOG
COUNCIL BLFS * CLOUDY    54  54 100 N12       29.55S FOG
CRESTON *      FOG       52  52 100 E3        29.54F VSB<1/4
HARLAN  *      FOG       52  52 100 CALM      29.59R VSB<1/4
LAMONI         FOG       54  54 100 CALM      29.54S VSB 1/4
RED OAK *      CLOUDY    55  55 100 CALM      29.54R FOG
SHENANDOAH *   CLOUDY    55  55 100 N8        29.52R FOG
$$

IAZ047>049-059>061-072>074-084-180200-
   CENTRAL IOWA

CITY           SKY/WX    TMP DP  RH WIND       PRES   REMARKS
AMES           FOG       45  45 100 E5        29.55F VSB 1/2
ANKENY *       FOG       46  46 100 N5        29.56S VSB 3/4
BOONE *        FOG       45  45 100 CALM      29.54F VSB 1/4
CHARITON *     FOG       54  54 100 SE5       29.54S VSB<1/4
DES MOINES     DRZL/FOG  50  50 100 NE3       29.54S VSB 1/4
GRINNELL*      CLOUDY    46  44  95 SE3       29.56F FOG
KNOXVILLE *    CLOUDY    50  50 100 S6        29.54S FOG
MARSHALLTOWN   CLOUDY    43  43 100 NE5       29.56S FOG
NEWTON *       CLOUDY    46  46 100 SE5       29.56R FOG
PELLA *        CLOUDY    49  48  97 S3        29.56F FOG
PERRY *        CLOUDY    49  49  98 NE3       29.56R FOG
$$

IAZ004>006-015-016-023>025-035-036-180200-
   NORTH CENTRAL IOWA

CITY           SKY/WX    TMP DP  RH WIND       PRES   REMARKS
ALGONA *       DRZL/FOG  43  43 100 N8        29.62R VSB 1/4
CLARION *      FOG       43  43 100 N6        29.59R VSB 1/4
ESTHERVILLE    CLOUDY    41  39  93 N9        29.63R
FORT DODGE *   FOG       44  44 100 CALM      29.58R VSB 1/2
MASON CITY     FOG       39  39 100 CALM      29.61R VSB 1/2
FOREST CITY *  FOG       41  41 100 CALM      29.60R VSB 3/4
WEBSTER CITY * FOG       45  45 100 CALM      29.56R VSB 1/4
IOWA FALLS *   FOG       43  42  97 CALM      29.58R VSB 1/2
$$

IAZ007>011-017>019-026>030-037>042-050>054-066-180200-
   NORTHEAST IOWA

CITY           SKY/WX    TMP DP  RH WIND       PRES   REMARKS
CEDAR RAPIDS   CLOUDY    43  43 100 S6        29.56F FOG
CHARLES CITY * CLOUDY    39  39 100 E5        29.59S FOG
CLINTON *      LGT RAIN  42  41  96 SE5       29.60F FOG
DECORAH *      CLOUDY    37  37 100 E5        29.58F FOG     WCI  34
DUBUQUE        CLOUDY    39  39 100 S9        29.58F FOG     WCI  33
MONTICELLO *   CLOUDY    41  41 100 SE5       29.58S FOG
OELWEIN *      FOG       39  39 100 E3        29.60R VSB 3/4
WATERLOO       FOG       40  39  97 NE5       29.58S VSB 3/4
$$

IAZ064-065-067-068-078-180200-
   EAST CENTRAL IOWA

CITY           SKY/WX    TMP DP  RH WIND       PRES   REMARKS
DAVENPORT      LGT RAIN  45  43  93 S7        29.60F FOG
IOWA CITY      CLOUDY    46  43  89 SE3       29.59F FOG
MT. PLEASANT * CLOUDY    47  46  97 S8        29.57S FOG
MUSCATINE *    CLOUDY    46  43  87 CALM      29.58F
QUAD CITIES    CLOUDY    48  42  80 S7        29.57F
$$

IAZ062-063-075>077-085>089-095>099-180200-
   SOUTHEAST IOWA

CITY           SKY/WX    TMP DP  RH WIND       PRES   REMARKS
BURLINGTON     CLOUDY    51  46  83 S14       29.57F
FAIRFIELD *    CLOUDY    48  45  87 S6        29.56S
FORT MADISON * CLOUDY    52  46  82 S12G17    29.57F
KEOKUK *       CLOUDY    55  48  76 S8        29.56F
OSKALOOSA *    CLOUDY    46  45  95 S3        29.56S FOG
OTTUMWA        CLOUDY    49  47  93 S10       29.55F
WASHINGTON *   CLOUDY    46  46 100 S6        29.58S FOG
$$

ABBREVIATIONS USED IN REMARKS
   TC - TEMPERATURES IN CELSIUS
  WCI - WIND CHILL INDEX
   HX - HEAT INDEX
  VSB - VISIBILITY
$$




USA.gov is the U.S. government's official web portal to all federal, state and local government web resources and services.